"Pseudo-MPEC" for JzoT1J3

Created 2025 May 12 8:31:03 UT using Find_Orb

Click here for an explanation of pseudo-MPECs

 
 Astrometry: 
     JzoT1J3*!C2025 04 28.28630 14 15 24.40 -34 26 58.0    ~4SJH 22.9 GXNEOCPW84
     JzoT1J3 !C2025 04 28.28805 14 15 24.15 -34 26 58.0    ~4SJH 22.8 GXNEOCPW84
     JzoT1J3 !C2025 04 28.28981 14 15 23.90 -34 26 58.1    ~4SJH 22.9 GXNEOCPW84
     JzoT1J3 !C2025 04 28.29156 14 15 23.65 -34 26 58.2    ~4SJH 22.7 GXNEOCPW84
     JzoT1J3 !C2025 04 28.29331 14 15 23.40 -34 26 58.3    ~4SJH 22.8 GXNEOCPW84

Station data:
(W84) Cerro Tololo-DECam  (S30.169594 W70.806420)  Chile.  Observer F. Valdes.
    Measurer S. Deen. 4.0-m reflector + CCD.

Orbital elements:  JzoT1J3
   Perihelion 2024 Dec 16.62007 +/- 231 TT = 14:52:54 (JD 2460661.12007)
Epoch 2025 Apr 28.0 TT = JDT 2460793.5   Earth MOID: 0.2529   Ma: 0.0560
M  13.28045279 +/- 70               (J2000 ecliptic)             AutoNEOCP
n   0.10032074 +/- 0.169            Peri.   90.09349 +/- 60
a   4.58714241 +/- 5.14             Node    22.90891 +/- 52
e   0.8209081 +/- 0.242             Incl.   30.94411 +/- 40
P   9.82457                H 20.61  G  0.15   U 11.6  SR
q 0.82151973 +/- 0.781    Q 8.35276508 +/- 28.1
From 5 observations 2025 Apr. 28 (10.1 min); mean residual 0".02
Residuals in arcseconds: 
250428 W84  .00   .04-    250428 W84  .01+  .02+    250428 W84  .00   .02-    
250428 W84  .01-  .04+    250428 W84  .00   .00     

Ephemerides (geocentric):
Date (UTC) HH   RA             Dec           delta  r     elong  mag " sig PA
---- --------  ------------   ------------  ------ ------ -----  --- --------
2025 05 12 09  13 47 33.544   -34 05 21.13  1.2918 2.2463 154.6 23.6  30d  63
2025 05 12 10  13 47 29.567   -34 05 12.69  1.2923 2.2467 154.5 23.6  30d  63
2025 05 12 11  13 47 25.596   -34 05 04.23  1.2929 2.2472 154.5 23.6  30d  63
2025 05 12 12  13 47 21.630   -34 04 55.75  1.2935 2.2476 154.5 23.6  30d  63
2025 05 12 13  13 47 17.670   -34 04 47.26  1.2941 2.2481 154.4 23.6  30d  63
2025 05 12 14  13 47 13.717   -34 04 38.75  1.2947 2.2485 154.4 23.6  30d  63
2025 05 12 15  13 47 09.769   -34 04 30.22  1.2952 2.2489 154.4 23.6  30d  63
2025 05 12 16  13 47 05.827   -34 04 21.67  1.2958 2.2494 154.3 23.6  30d  63
2025 05 12 17  13 47 01.891   -34 04 13.11  1.2964 2.2498 154.3 23.6  30d  63
2025 05 12 18  13 46 57.961   -34 04 04.53  1.2970 2.2503 154.3 23.6  30d  63
2025 05 12 19  13 46 54.036   -34 03 55.93  1.2976 2.2507 154.2 23.6  30d  63
2025 05 12 20  13 46 50.118   -34 03 47.32  1.2981 2.2511 154.2 23.6  30d  63
2025 05 12 21  13 46 46.205   -34 03 38.69  1.2987 2.2516 154.2 23.6  30d  63
2025 05 12 22  13 46 42.299   -34 03 30.04  1.2993 2.2520 154.1 23.6  30d  63
2025 05 12 23  13 46 38.398   -34 03 21.38  1.2999 2.2525 154.1 23.6  30d  63
2025 05 13 00  13 46 34.503   -34 03 12.70  1.3005 2.2529 154.1 23.6  30d  63
2025 05 13 01  13 46 30.614   -34 03 04.00  1.3011 2.2533 154.1 23.6  30d  63
2025 05 13 02  13 46 26.731   -34 02 55.29  1.3016 2.2538 154.0 23.6  30d  63
2025 05 13 03  13 46 22.854   -34 02 46.56  1.3022 2.2542 154.0 23.6  30d  63
2025 05 13 04  13 46 18.982   -34 02 37.81  1.3028 2.2546 154.0 23.7  30d  63
2025 05 13 05  13 46 15.117   -34 02 29.05  1.3034 2.2551 153.9 23.7  30d  63
2025 05 13 06  13 46 11.257   -34 02 20.27  1.3040 2.2555 153.9 23.7  30d  63
2025 05 13 07  13 46 07.404   -34 02 11.48  1.3046 2.2560 153.9 23.7  30d  63
2025 05 13 08  13 46 03.556   -34 02 02.67  1.3052 2.2564 153.8 23.7  30d  63
2025 05 13 09  13 45 59.714   -34 01 53.84  1.3058 2.2568 153.8 23.7  31d  63
2025 05 13 10  13 45 55.878   -34 01 45.00  1.3063 2.2573 153.8 23.7  31d  63
2025 05 13 11  13 45 52.047   -34 01 36.14  1.3069 2.2577 153.7 23.7  31d  63
2025 05 13 12  13 45 48.223   -34 01 27.27  1.3075 2.2582 153.7 23.7  31d  63
2025 05 13 13  13 45 44.405   -34 01 18.38  1.3081 2.2586 153.7 23.7  31d  63
2025 05 13 14  13 45 40.592   -34 01 09.48  1.3087 2.2590 153.6 23.7  31d  63
2025 05 13 15  13 45 36.785   -34 01 00.56  1.3093 2.2595 153.6 23.7  31d  63
2025 05 13 16  13 45 32.984   -34 00 51.63  1.3099 2.2599 153.6 23.7  31d  63
2025 05 13 17  13 45 29.190   -34 00 42.68  1.3105 2.2603 153.5 23.7  31d  63
2025 05 13 18  13 45 25.400   -34 00 33.71  1.3111 2.2608 153.5 23.7  31d  63
2025 05 13 19  13 45 21.617   -34 00 24.73  1.3117 2.2612 153.5 23.7  31d  63
2025 05 13 20  13 45 17.840   -34 00 15.74  1.3122 2.2617 153.4 23.7  31d  63
2025 05 13 21  13 45 14.068   -34 00 06.73  1.3128 2.2621 153.4 23.7  31d  63
2025 05 13 22  13 45 10.303   -33 59 57.70  1.3134 2.2625 153.4 23.7  31d  63
2025 05 13 23  13 45 06.543   -33 59 48.66  1.3140 2.2630 153.3 23.7  31d  63
2025 05 14 00  13 45 02.789   -33 59 39.61  1.3146 2.2634 153.3 23.7  31d  63
2025 05 14 01  13 44 59.041   -33 59 30.54  1.3152 2.2639 153.3 23.7  31d  63
2025 05 14 02  13 44 55.299   -33 59 21.46  1.3158 2.2643 153.2 23.7  31d  63
2025 05 14 03  13 44 51.563   -33 59 12.36  1.3164 2.2647 153.2 23.7  31d  63
2025 05 14 04  13 44 47.832   -33 59 03.25  1.3170 2.2652 153.2 23.7  31d  63
2025 05 14 05  13 44 44.108   -33 58 54.12  1.3176 2.2656 153.1 23.7  31d  63
2025 05 14 06  13 44 40.389   -33 58 44.98  1.3182 2.2660 153.1 23.7  31d  63
2025 05 14 07  13 44 36.676   -33 58 35.83  1.3188 2.2665 153.1 23.7  31d  63
2025 05 14 08  13 44 32.969   -33 58 26.66  1.3194 2.2669 153.0 23.7  31d  63